Regional Weather Roundup
Issued by NWS

Home | Current Version | Previous Version | Graphics & Text | Print | Product List | Glossary On
Versions: 1 2 3 4 5 6 7 8 9 10 11 12 13 14 15 16 17 18 19 20 21 22 23 24 25 26 27 28 29 30 31 32 33 34 35 36 37 38 39 40 41 42 43 44 45 46 47 48 49 50
000
ASUS45 KABQ 181201
RWRNM
WEATHER ROUNDUP FOR NEW MEXICO
NATIONAL WEATHER SERVICE ALBUQUERQUE NM
600 AM MDT THU SEP 18 2014

NOTE: "FAIR" MEANS FEW OR NO CLOUDS BELOW 12,000 FEET AGL WITH NO
       SIGNIFICANT WEATHER OR OBSTRUCTIONS TO VISION.

      THIS PRODUCT IS RELEASED AS TWO VERSIONS.  ONE VERSION NEAR
      THE TOP OF THE HOUR CONTAINING PRELIMINARY DATA FROM ALBUQUERQUE
      AND OTHER STATIONS.  A FINAL VERSION WITH ADDITIONAL DATA IS
      ISSUED ABOUT 10 MINUTES AFTER THE HOUR.

NMZ501-503-504-510>518-181300-
NORTHWEST PLATEAU/NORTHCENTRAL MOUNTAINS

CITY           SKY/WX    TMP DP  RH WIND       PRES   REMARKS
FARMINGTON     CLEAR     55  45  68 E8        30.08S
6HR MIN TEMP:  54; 6HR MAX TEMP:  64;

LOS ALAMOS     PTCLDY    54  44  69 N7        30.19R
SANTA FE       PTCLDY    49  45  86 N10       30.13S
6HR MIN TEMP:  49; 6HR MAX TEMP:  58;

TAOS           PTCLDY    41  36  81 N6        30.21S
ANGEL FIRE     FOG       27  26  93 CALM      30.30S VSB 1

$$
NMZ402-403-502-505>509-181300-
WESTCENTRAL MOUNTAINS/SOUTHWEST MOUNTAINS

CITY           SKY/WX    TMP DP  RH WIND       PRES   REMARKS
GALLUP         CLEAR     46  39  76 CALM      30.13R
6HR MIN TEMP:  45; 6HR MAX TEMP:  54;

SILVER CITY    LGT RAIN  59  59 100 NE3       30.05S

$$
NMZ407-409-411-412-181300-
SOUTHERN DESERTS

CITY           SKY/WX    TMP DP  RH WIND       PRES   REMARKS
LORDSBURG      RAIN      61  61 100 SE8       29.96R
DEMING         LGT RAIN  63  61  93 E12       29.98F
6HR MIN TEMP:  63; 6HR MAX TEMP:  65; 6HR PCP:  0.23;

LAS CRUCES     CLOUDY    64  63  95 N8        29.99F
HOLLOMAN AFB   CLOUDY    66  66 100 CALM      29.99F
ALAMOGORDO     CLOUDY    64  64 100 SE5       30.01F
T OR C         CLOUDY    63  60  90 NW3       30.02F
6HR MIN TEMP:  63; 6HR MAX TEMP:  67; 6HR PCP:  0.14;


$$
NMZ519>523-181300-
CENTRAL VALLEYS/CENTRAL HIGHLANDS

CITY           SKY/WX    TMP DP  RH WIND       PRES   REMARKS
ALBUQUERQUE    PTCLDY    59  53  80 N7        30.08S
6HR MIN TEMP:  59; 6HR MAX TEMP:  66;

DOUBLE EAGLE   CLEAR     52  48  87 NW6       30.10S
CLINES CORNERS MOCLDY    54  47  77 NE5       30.15S
6HR MIN TEMP:  53; 6HR MAX TEMP:  60;

BELEN          FAIR      58  58  99 N5        30.07S
6HR MIN TEMP:  58; 6HR MAX TEMP:  63;

SOCORRO        LGT RAIN  63  62  94 CALM      30.04F
6HR MIN TEMP:  63; 6HR MAX TEMP:  66; 6HR PCP:  0.07;


$$
NMZ524>526-539-540-181300-
SOUTHCENTRAL MOUNTAINS

CITY           SKY/WX    TMP DP  RH WIND       PRES   REMARKS
RUIDOSO        NOT AVBL

$$
NMZ527>531-181300-
NORTHEAST HIGHLANDS/NORTHEAST PLAINS

CITY           SKY/WX    TMP DP  RH WIND       PRES   REMARKS
LAS VEGAS      PTCLDY    45  40  82 N7        30.16S
6HR MIN TEMP:  44; 6HR MAX TEMP:  55;

RATON          CLEAR     45  43  93 NE7       30.12F
6HR MIN TEMP:  45; 6HR MAX TEMP:  54;

CLAYTON        CLEAR     58  50  75 W10       30.03F
6HR MIN TEMP:  56; 6HR MAX TEMP:  61;


$$
NMZ532>537-181300-
EASTCENTRAL PLAINS

CITY           SKY/WX    TMP DP  RH WIND       PRES   REMARKS
TUCUMCARI      CLOUDY    63  60  90 W3        30.00S
6HR MIN TEMP:  60; 6HR MAX TEMP:  66;

CANNON AFB     NOT AVBL
CLOVIS AIRPORT   N/A     63  61  94 NE6       30.04S

$$
NMZ028-029-538-181300-
SOUTHEAST PLAINS

CITY           SKY/WX    TMP DP  RH WIND       PRES   REMARKS
ROSWELL        LGT RAIN  67  65  93 SE6       29.98R
6HR MIN TEMP:  67; 6HR MAX TEMP:  69; 6HR PCP:  0.17;

CARLSBAD       LGT RAIN  66  50  57 S9        29.97F
6HR MIN TEMP:  66; 6HR MAX TEMP:  71;

HOBBS          TSTM      63  63 100 SW13      30.02


$$


USA.gov is the U.S. government's official web portal to all federal, state and local government web resources and services.